カタログに戻る

CZ-3 R/B

運用中HEO
NORAD 29517·ROCKET BODY·🇨🇳 China

打ち上げ Oct 28, 2006 から Xichang Satellite Launch Center

Loading…

次のパス (今後24時間)

TLE

最新Source: Space-Track

元期: Sep 14, 2026, 19:04 UTC

1 29517U 06048B   26257.79493452  .00000029  00000-0  12144-4 0  9994
2 29517  28.2347 312.6618 4034171 169.4182 202.6793  6.89904339400037

AllMySatでCZ-3 R/Bをリアルタイム追跡

Download on the App Store